Location: Wangen+im+Allg�u
(47.7098°N, 9.8383°E)
Time: 09:43:00
(UTC+02:00)

ISS - Pass Details

Date: 28 May 2018
Orbit: 402 x 406 km, 51.6° (Epoch: 20 June)

Event Time Altitude Azimuth Distance (km) Brightness Sun altitude
Rises 01:01:25 0° 293° (WNW) 2,323 0.4 -20.8°
Reaches altitude 10° 01:03:30 10° 292° (WNW) 1,461 -0.7 -20.8°
Enters shadow 01:05:45 41° 286° (WNW) 601 -2.9 -20.8°
